Regional Weather Roundup
Issued by NWS

Home | Current Version | Previous Version | Graphics & Text | Print | Product List | Glossary On
Versions: 1 2 3 4 5 6 7 8 9 10 11 12 13 14 15 16 17 18 19 20 21 22 23 24 25 26 27 28 29 30 31 32 33 34 35 36 37 38 39 40 41 42 43 44 45 46 47 48 49 50
000
ASUS45 KBOU 061510
RWRCO

WEATHER ROUNDUP FOR COLORADO
NATIONAL WEATHER SERVICE DENVER/BOULDER CO
900 AM MDT MON JUL 06 2015

NOTE: "FAIR" INDICATES FEW OR NO CLOUDS BELOW 12000 FEET WITH NO
SIGNIFICANT WEATHER AND/OR OBSTRUCTIONS TO VISIBILITY.

COZ001>005-013-030-031-061600-
...NORTHWEST COLORADO...

CITY           SKY/WX    TMP DP  RH WIND       PRES   REMARKS
CRAIG          CLOUDY    60  55  83 CALM      30.30R
HAYDEN         PTSUNNY   59  52  77 CALM      30.31R
MEEKER         PTSUNNY   59  56  89 SW6       30.30R
MOUNT WERNER   NOT AVBL
STEAMBOAT SPGS CLOUDY    55  53  92 CALM      30.32S
WALDEN         CLOUDY    54  48  82 CALM      30.37R
$$

COZ006>008-011-061600-
...WEST CENTRAL VALLEYS...

CITY           SKY/WX    TMP DP  RH WIND       PRES   REMARKS
GRAND JUNCTION MOSUNNY   69  57  65 SE9       30.18R
MONTROSE       MOSUNNY   67  54  63 CALM      30.26R
EAGLE          PTSUNNY   61  55  82 CALM      30.32R
RIFLE          CLOUDY    63  57  81 NE3       30.23R
DELTA          MOSUNNY   67  57  71 CALM      30.22S
NUCLA          MOSUNNY   64  55  72 NW6       30.28S
$$

COZ017>023-064>068-061600-
...SOUTHWEST COLORADO...

CITY           SKY/WX    TMP DP  RH WIND       PRES   REMARKS
DURANGO        MOSUNNY   66  51  58 CALM      30.24S
CORTEZ         CLOUDY    71  53  52 CALM      30.21F
PAGOSA SPRINGS MOSUNNY   64  51  63 SW3       30.32R
TELLURIDE      MOSUNNY   58  50  73 CALM      30.44R
WOLF CREEK PAS NOT AVBL
$$

COZ009-010-012-014-032>034-037-058>063-061600-
...CENTRAL COLORADO...

CITY           SKY/WX    TMP DP  RH WIND       PRES   REMARKS
ASPEN          PTSUNNY   61  51  70 CALM      30.34S
BUENA VISTA    MOSUNNY   60  48  63 E5        30.34R
COPPER MTN     CLOUDY    46  43  87 W16       30.60R
BERTHOUD PASS  HAZE      37  30  75 NW12G28   30.63R VSB<1/4
COTTONWOOD PAS NOT AVBL
GUNNISON       MOSUNNY   55  48  76 CALM      30.39R
KREMMLING      CLOUDY    59  52  77 CALM      30.36R
LEADVILLE      MOSUNNY   54  45  71 N10       30.46R
MONARCH PASS   FOG       45  43  93 SW6       30.70R VSB 1/4
SALIDA         MOSUNNY   64  50  61 CALM      30.39S
SUNLIGHT       CLOUDY    50  45  81 NW5       30.57R
WILKERSON PASS PTSUNNY   50  45  81 N5        30.58R
$$

COZ069>075-061600-
...SAN LUIS VALLEY/SANGRE DE CRISTO MOUNTAINS...

CITY           SKY/WX    TMP DP  RH WIND       PRES   REMARKS
ALAMOSA        MOSUNNY   66  53  63 N8        30.30S
LA VETA PASS   FOG       48  46  93 MISG      30.48R VSB<1/4
SAGUACHE       MOSUNNY   63  50  63 NW16      30.33S
$$

COZ035-036-038>040-061600-
...NORTHERN COLORADO FRONT RANGE...

CITY           SKY/WX    TMP DP  RH WIND       PRES   REMARKS
DENVER INTL AP CLOUDY    60  59  96 NE10      30.25R FOG
DMNS CITY PARK   N/A     61  57  88 NE7G18    30.26R
AURORA         CLOUDY    61  59  95 NE10      30.26R
FRONT RANGE AP LGT RAIN  61  59  94 N7        30.26R
ERIE MUNI ARPT LGT RAIN  59  57  94 NE7       30.25R
BOULDER MUN AP DRIZZLE   59  59 100 NE6       30.26R
CENTENNIAL     CLOUDY    59  57  93 NE12      30.26R
BROOMFIELD     LGT RAIN  59  57  94 N12       30.28R
FORT COLLINS   CLOUDY    61  55  82 N7        30.27R
LONGMONT       LGT RAIN  62  59  92 NE7       30.27R
$$

COZ041-046-047-076>085-087-088-061600-
...PIKES PEAK/PALMER DIVIDE AND SOUTHERN FOOTHILLS...

CITY           SKY/WX    TMP DP  RH WIND       PRES   REMARKS
COLO. SPRINGS  PTSUNNY   67  54  63 N21G26    30.25R
A. F. ACADEMY  PTSUNNY   62  55  79 NE14      30.27R
ELLICOTT       MOSUNNY  N/A N/A N/A N21       30.23R
FALCON         MOSUNNY   63  55  75 N12       30.30S
FORT CARSON    PTSUNNY   70  57  63 N15       30.22R
LIMON          CLOUDY    60  59  96 N18G25    30.22R FOG
MONUMENT HILL  NOT AVBL
TRINIDAD       LGT RAIN  65  60  84 N6        30.22R
$$

COZ042>045-048>051-090-091-061600-
...NORTHEAST COLORADO...

CITY           SKY/WX    TMP DP  RH WIND       PRES   REMARKS
GREELEY ARPT   CLOUDY    63  55  77 NE9       30.24R
AKRON          CLOUDY    59  58  96 N15G24    30.21R
BURLINGTON     CLOUDY    64  60  87 N22       30.13R
WRAY           CLOUDY    65  60  86 N14G21    30.14R
STERLING       CLOUDY    63  55  77 NE14G20     N/A
HOLYOKE        CLOUDY    66  59  77 N18       30.14S
FORT MORGAN    CLOUDY    63  55  75 NE16      30.22R
$$

COZ086-089-092>099-061600-
...SOUTHEAST COLORADO...

CITY           SKY/WX    TMP DP  RH WIND       PRES   REMARKS
PUEBLO         PTSUNNY   75  58  55 N8        30.15R
LA JUNTA       CLOUDY    71  61  70 N16       30.14R
LAMAR          CLOUDY    70  62  76 N16       30.09R
SPRINGFIELD      N/A     70  61  73 N21       30.10R
$$



USA.gov is the U.S. government's official web portal to all federal, state and local government web resources and services.